GW5669 Weather Reports


time (UTC)temp
F
wind
direction
speed
knots
gust
knots
rain 1hr
in
rain 24hr
in
rain mn
in
humidity
%
barometer
mb
20260510044816 54 27 0.9 2.6 0.00 0.00 0.00 68 1013.6
20260510044313 55 330 0.9 3.5 0.00 0.00 0.00 67 1013.6
20260510043810 55 267 1.7 2.6 0.00 0.00 0.00 67 1013.6
20260510043306 54 32 0.9 1.7 0.00 0.00 0.00 68 1013.5
20260510042804 54 56 0.9 1.7 0.00 0.00 0.00 68 1013.5
20260510042259 54 49 1.7 2.6 0.00 0.00 0.00 68 1013.5
20260510041755 55 187 0.9 1.7 0.00 0.00 0.00 67 1013.5
20260510041253 53 248 2.6 3.5 0.00 0.00 0.00 68 1013.4
20260510040750 53 264 1.7 2.6 0.00 0.00 0.00 69 1013.3
20260510040242 53 331 1.7 2.6 0.00 0.00 0.00 69 1013.5
20260510035737 54 268 1.7 2.6 0.00 0.00 0.00 68 1013.4
20260510035233 53 35 0.9 1.7 0.00 0.00 0.00 69 1013.4
20260510034729 53 86 0.0 1.7 0.00 0.00 0.00 69 1013.4
20260510034228 53 85 0.0 0.9 0.00 0.00 0.00 69 1013.5
20260510033722 54 98 0.0 0.0 0.00 0.00 0.00 67 1013.3
20260510033221 54 100 0.9 1.7 0.00 0.00 0.00 66 1013.4
20260510032717 54 93 0.0 0.9 0.00 0.00 0.00 66 1013.3
20260510032213 55 94 0.9 0.9 0.00 0.00 0.00 65 1013.4
20260510031707 55 80 0.0 0.9 0.00 0.00 0.00 64 1013.4
20260510031204 55 88 0.0 0.9 0.00 0.00 0.00 63 1013.2
20260510030658 56 84 0.0 0.0 0.00 0.00 0.00 62 1013.2
20260510030156 58 85 0.0 0.9 0.00 0.00 0.00 60 1013.2
20260510025653 58 50 0.9 1.7 0.00 0.00 0.00 58 1013.0
20260510025150 59 356 1.7 1.7 0.00 0.00 0.00 58 1013.1
20260510024647 59 90 1.7 1.7 0.00 0.00 0.00 57 1013.1
20260510024143 59 71 0.9 1.7 0.00 0.00 0.00 56 1012.9
20260510023639 58 274 1.7 2.6 0.00 0.00 0.00 57 1013.1
20260510023137 58 259 1.7 1.7 0.00 0.00 0.00 59 1012.9
20260510022636 57 286 1.7 2.6 0.00 0.00 0.00 61 1012.9
20260510022132 56 336 1.7 1.7 0.00 0.00 0.00 63 1012.9
20260510021627 56 73 0.0 0.0 0.00 0.00 0.00 63 1012.7
20260510021125 57 73 0.0 0.0 0.00 0.00 0.00 62 1012.6
20260510020619 57 73 0.0 0.0 0.00 0.00 0.00 60 1012.5
20260510020115 59 85 0.0 0.0 0.00 0.00 0.00 57 1012.5
20260510015612 60 85 0.0 1.7 0.00 0.00 0.00 55 1012.3
20260510015108 61 91 0.0 2.6 0.00 0.00 0.00 53 1012.3
20260510014604 62 284 2.6 3.5 0.00 0.00 0.00 52 1012.0
20260510014102 62 320 1.7 3.5 0.00 0.00 0.00 52 1012.1
20260510013601 61 269 1.7 2.6 0.00 0.00 0.00 53 1012.1
20260510013058 61 39 0.9 1.7 0.00 0.00 0.00 54 1012.2
20260510012557 61 351 1.7 1.7 0.00 0.00 0.00 53 1011.8
20260510012054 61 329 0.9 1.7 0.00 0.00 0.00 53 1011.8
20260510011553 61 17 0.9 2.6 0.00 0.00 0.00 54 1011.5
20260510011049 61 2 0.9 2.6 0.00 0.00 0.00 53 1011.5
20260510010546 61 12 1.7 2.6 0.00 0.00 0.00 53 1011.5
20260510010043 61 236 1.7 2.6 0.00 0.00 0.00 54 1011.3
20260510005539 61 24 0.9 2.6 0.00 0.00 0.00 53 1011.2
20260510005037 61 23 1.7 2.6 0.00 0.00 0.00 53 1011.2
20260510004534 62 66 0.9 1.7 0.00 0.00 0.00 53 1011.3
20260510004032 62 351 0.9 2.6 0.00 0.00 0.00 52 1011.0
20260510003528 62 4 1.7 1.7 0.00 0.00 0.00 51 1010.9
20260510003024 62 1 0.9 1.7 0.00 0.00 0.00 51 1010.9
20260510002519 63 53 0.9 2.6 0.00 0.00 0.00 51 1010.7
20260510002017 63 25 1.7 1.7 0.00 0.00 0.00 51 1010.8
20260510001514 64 338 1.7 1.7 0.00 0.00 0.00 50 1010.5
20260510001012 65 356 1.7 1.7 0.00 0.00 0.00 48 1010.5
20260510000512 66 4 0.9 1.7 0.00 0.00 0.00 47 1010.4
20260510000010 67 326 1.7 2.6 0.00 0.00 0.00 45 1010.5
20260509235506 68 3 1.7 2.6 0.00 0.00 0.00 43 1010.5
20260509235002 69 265 2.6 3.5 0.00 0.00 0.00 42 1010.3
20260509234459 69 43 0.9 1.7 0.00 0.00 0.00 41 1010.5
20260509233957 69 0 1.7 1.7 0.00 0.00 0.00 41 1010.4
20260509233454 69 1 1.7 2.6 0.00 0.00 0.00 42 1010.5
20260509232950 69 348 1.7 2.6 0.00 0.00 0.00 42 1010.4
20260509232448 69 320 2.6 2.6 0.00 0.00 0.00 40 1010.4
20260509231943 69 320 1.7 2.6 0.00 0.00 0.00 42 1010.4
20260509231440 70 271 1.7 2.6 0.00 0.00 0.00 43 1010.2
20260509230939 69 279 1.7 2.6 0.00 0.00 0.00 42 1010.3
20260509230435 70 292 2.6 6.1 0.00 0.00 0.00 40 1010.2
20260509225931 72 309 1.7 2.6 0.00 0.00 0.00 40 1010.2
20260509225428 71 259 3.5 3.5 0.00 0.00 0.00 40 1010.4
20260509224924 71 291 1.7 2.6 0.00 0.00 0.00 40 1010.1
20260509224419 73 277 3.5 3.5 0.00 0.00 0.00 37 1010.2
20260509223917 74 266 1.7 2.6 0.00 0.00 0.00 37 1010.1
20260509223413 73 267 2.6 3.5 0.00 0.00 0.00 36 1010.1
20260509222911 72 303 1.7 3.5 0.00 0.00 0.00 38 1010.3
20260509222406 72 236 5.2 6.1 0.00 0.00 0.00 37 1010.3
20260509221901 72 297 2.6 5.2 0.00 0.00 0.00 39 1010.3
20260509221359 71 294 2.6 6.1 0.00 0.00 0.00 37 1010.2
20260509220854 71 269 4.3 8.7 0.00 0.00 0.00 37 1010.1
20260509220350 71 309 2.6 6.1 0.00 0.00 0.00 38 1010.0
20260509215846 71 268 5.2 7.0 0.00 0.00 0.00 36 1010.1
20260509215343 72 252 3.5 7.0 0.00 0.00 0.00 34 1010.0
20260509214840 72 215 3.5 6.1 0.00 0.00 0.00 36 1010.0
20260509214337 71 305 3.5 7.8 0.00 0.00 0.00 35 1009.9
20260509213834 72 292 3.5 6.1 0.00 0.00 0.00 36 1010.0
20260509213329 72 277 6.1 8.7 0.00 0.00 0.00 35 1009.8
20260509212827 72 308 1.7 7.0 0.00 0.00 0.00 34 1009.8
20260509212325 72 105 3.5 7.0 0.00 0.00 0.00 36 1009.8
20260509211820 72 286 4.3 13.0 0.00 0.00 0.00 35 1009.8
20260509211317 72 272 2.6 7.8 0.00 0.00 0.00 35 1009.9
20260509210814 73 76 1.7 6.1 0.00 0.00 0.00 34 1009.7
20260509210311 73 171 2.6 7.0 0.00 0.00 0.00 34 1009.7
20260509205810 73 83 1.7 1.7 0.00 0.00 0.00 36 1009.6
20260509205307 72 135 0.9 3.5 0.00 0.00 0.00 36 1009.5
20260509204802 72 217 2.6 7.0 0.00 0.00 0.00 35 1009.5
20260509204258 72 74 1.7 3.5 0.00 0.00 0.00 36 1009.6
20260509203754 72 141 1.7 5.2 0.00 0.00 0.00 35 1009.6
20260509203252 72 140 2.6 5.2 0.00 0.00 0.00 35 1009.5
20260509202748 72 110 0.9 3.5 0.00 0.00 0.00 35 1009.3
20260509202244 72 90 1.7 3.5 0.00 0.00 0.00 35 1009.5
20260509201744 73 136 1.7 3.5 0.00 0.00 0.00 33 1009.3
20260509201241 75 57 2.6 5.2 0.00 0.00 0.00 32 1009.3
20260509200738 76 141 1.7 14.8 0.00 0.00 0.00 31 1009.3
20260509200237 75 164 10.4 13.9 0.00 0.00 0.00 32 1009.3
20260509195734 72 159 3.5 7.8 0.00 0.00 0.00 35 1009.5
20260509195229 72 149 8.7 11.3 0.00 0.00 0.00 34 1009.6
20260509194724 72 189 9.6 11.3 0.00 0.00 0.00 34 1009.5
20260509194221 73 177 2.6 11.3 0.00 0.00 0.00 34 1009.5
20260509193718 73 197 2.6 6.1 0.00 0.00 0.00 33 1009.8
20260509193217 75 205 4.3 7.0 0.00 0.00 0.00 34 1009.8
20260509192714 75 66 3.5 5.2 0.00 0.00 0.00 35 1009.6
20260509192209 75 298 3.5 6.1 0.00 0.00 0.00 36 1009.8
20260509191705 74 147 1.7 7.8 0.00 0.00 0.00 37 1009.8
20260509191201 75 82 1.7 6.1 0.00 0.00 0.00 36 1010.2
20260509190657 76 136 7.0 12.2 0.00 0.00 0.00 35 1010.0
20260509190155 76 127 1.7 5.2 0.00 0.00 0.00 36 1010.0
20260509185652 75 126 1.7 2.6 0.00 0.00 0.00 37 1010.1
20260509185148 75 140 6.1 9.6 0.00 0.00 0.00 38 1010.3
20260509184646 75 135 3.5 12.2 0.00 0.00 0.00 37 1010.2
20260509184142 74 180 4.3 7.8 0.00 0.00 0.00 39 1010.0
20260509183639 73 165 5.2 12.2 0.00 0.00 0.00 40 1010.2
20260509183134 72 156 3.5 9.6 0.00 0.00 0.00 40 1010.2
20260509182630 73 157 9.6 14.8 0.00 0.00 0.00 39 1010.3
20260509182127 73 162 9.6 13.9 0.00 0.00 0.00 37 1010.4
20260509181625 73 157 4.3 7.8 0.00 0.00 0.00 39 1010.4
20260509181123 72 63 1.7 2.6 0.00 0.00 0.00 42 1010.4
20260509180619 72 146 7.8 11.3 0.00 0.00 0.00 42 1010.8
20260509180116 70 148 8.7 11.3 0.00 0.00 0.00 44 1010.9
20260509175611 71 142 1.7 7.8 0.00 0.00 0.00 41 1010.8
20260509175109 71 161 3.5 11.3 0.00 0.00 0.00 44 1010.8
20260509174605 71 129 4.3 9.6 0.00 0.00 0.00 42 1011.0
20260509174100 70 163 6.1 9.6 0.00 0.00 0.00 44 1010.8
20260509173555 71 160 4.3 8.7 0.00 0.00 0.00 43 1011.3
20260509173051 69 149 7.8 11.3 0.00 0.00 0.00 49 1011.3
20260509172549 68 149 6.1 8.7 0.00 0.00 0.00 48 1011.3
20260509172044 68 135 7.0 8.7 0.00 0.00 0.00 49 1011.2
20260509171540 68 159 9.6 13.0 0.00 0.00 0.00 48 1011.3
20260509171037 68 157 7.8 11.3 0.00 0.00 0.00 50 1011.2
20260509170533 67 138 8.7 11.3 0.00 0.00 0.00 51 1011.2
20260509170029 66 91 1.7 6.1 0.00 0.00 0.00 53 1011.2
20260509165527 66 91 4.3 6.1 0.00 0.00 0.00 52 1011.2
20260509165023 66 82 1.7 5.2 0.00 0.00 0.00 54 1011.5
20260509164520 66 119 2.6 5.2 0.00 0.00 0.00 53 1011.8
20260509164016 66 137 2.6 6.1 0.00 0.00 0.00 53 1011.7
20260509163514 66 101 4.3 6.1 0.00 0.00 0.00 52 1011.7
20260509163014 66 130 6.1 8.7 0.00 0.00 0.00 52 1011.8
20260509162512 66 130 4.3 6.1 0.00 0.00 0.00 52 1011.8
20260509162007 66 133 5.2 8.7 0.00 0.00 0.00 51 1011.8
20260509161504 66 206 3.5 7.8 0.00 0.00 0.00 52 1011.8
20260509160959 66 189 7.0 9.6 0.00 0.00 0.00 51 1011.8
20260509160456 66 155 4.3 7.8 0.00 0.00 0.00 51 1011.8
20260509155956 66 171 6.1 8.7 0.00 0.00 0.00 51 1011.9
20260509155452 66 163 6.1 7.8 0.00 0.00 0.00 52 1011.4
20260509154949 66 144 7.8 9.6 0.00 0.00 0.00 52 1011.5
20260509154445 66 153 6.1 8.7 0.00 0.00 0.00 53 1011.7
20260509153943 65 124 5.2 7.8 0.00 0.00 0.00 53 1011.5
20260509153439 66 153 7.8 8.7 0.00 0.00 0.00 52 1011.8
20260509152936 66 167 3.5 7.8 0.00 0.00 0.00 53 1011.8
20260509152432 65 142 5.2 7.8 0.00 0.00 0.00 52 1011.7
20260509151929 66 140 5.2 7.0 0.00 0.00 0.00 51 1011.7
20260509151425 66 126 1.7 6.1 0.00 0.00 0.00 52 1011.3
20260509150924 66 89 0.9 3.5 0.00 0.00 0.00 51 1011.3
20260509150421 66 77 0.0 2.6 0.00 0.00 0.00 53 1011.5
20260509145919 66 143 3.5 6.1 0.00 0.00 0.00 52 1011.7
20260509145419 66 63 0.9 3.5 0.00 0.00 0.00 55 1011.4
20260509144915 66 94 0.0 2.6 0.00 0.00 0.00 51 1011.4
20260509144412 66 79 0.9 2.6 0.00 0.00 0.00 51 1011.4
20260509143909 66 72 0.9 2.6 0.00 0.00 0.00 49 1011.5
20260509143406 66 90 0.9 3.5 0.00 0.00 0.00 52 1011.4
20260509142902 66 96 1.7 2.6 0.00 0.00 0.00 55 1011.5
20260509142359 65 309 2.6 3.5 0.00 0.00 0.00 55 1011.4
20260509141854 66 111 3.5 6.1 0.00 0.00 0.00 54 1011.5
20260509141352 65 17 0.9 1.7 0.00 0.00 0.00 53 1011.8
20260509140848 64 72 0.0 3.5 0.00 0.00 0.00 57 1012.0
20260509140345 64 91 0.0 1.7 0.00 0.00 0.00 55 1012.0
20260509135843 62 68 0.9 0.9 0.00 0.00 0.00 58 1012.4
20260509135340 60 70 0.0 1.7 0.00 0.00 0.00 61 1012.4
20260509134838 60 12 1.7 1.7 0.00 0.00 0.00 59 1012.4
20260509134335 60 16 1.7 1.7 0.00 0.00 0.00 60 1012.5
20260509133831 60 37 0.9 1.7 0.00 0.00 0.00 60 1012.6
20260509133328 60 75 1.7 1.7 0.00 0.00 0.00 61 1012.6
20260509132827 59 45 0.9 0.9 0.00 0.00 0.00 63 1012.6
20260509132325 58 44 0.9 1.7 0.00 0.00 0.00 61 1012.8
20260509131822 58 88 0.0 1.7 0.00 0.00 0.00 62 1012.8
20260509131318 58 76 0.9 1.7 0.00 0.00 0.00 62 1012.8
20260509130815 57 48 0.9 0.9 0.00 0.00 0.00 63 1012.8
20260509130311 57 81 0.9 0.9 0.00 0.00 0.00 63 1012.6
20260509125807 57 117 1.7 1.7 0.00 0.00 0.00 61 1012.7
20260509125307 57 92 0.9 1.7 0.00 0.00 0.00 61 1012.7
20260509124800 56 74 0.9 1.7 0.00 0.00 0.00 62 1012.7
20260509124257 56 94 0.9 0.9 0.00 0.00 0.00 63 1012.4
20260509123755 55 78 0.0 0.9 0.00 0.00 0.00 65 1012.5
20260509123252 55 81 0.0 0.9 0.00 0.00 0.00 65 1012.5
20260509122748 55 134 0.0 0.9 0.00 0.00 0.00 67 1012.7
20260509122245 54 7 1.7 1.7 0.00 0.00 0.00 69 1012.5
20260509121742 54 24 0.9 0.9 0.00 0.00 0.00 70 1012.5
20260509121239 53 59 0.9 0.9 0.00 0.00 0.00 68 1012.9
20260509120737 53 55 0.9 1.7 0.00 0.00 0.00 68 1012.8
20260509120234 53 32 0.9 1.7 0.00 0.00 0.00 67 1012.7
20260509115733 53 17 0.9 1.7 0.00 0.00 0.00 67 1012.9
20260509115229 53 79 0.0 0.9 0.00 0.00 0.00 66 1012.8
20260509114728 53 31 0.9 1.7 0.00 0.00 0.00 66 1012.8
20260509114226 53 80 0.0 0.0 0.00 0.00 0.00 64 1012.5
20260509113724 53 80 0.0 0.0 0.00 0.00 0.00 65 1012.7
20260509113221 52 79 0.0 0.0 0.00 0.00 0.00 64 1012.8
20260509112718 52 71 0.0 0.0 0.00 0.00 0.00 69 1012.7
20260509112215 52 70 0.0 0.0 0.00 0.00 0.00 65 1012.7
20260509111712 52 71 0.0 0.0 0.00 0.00 0.00 65 1012.7
20260509111209 52 69 0.0 0.0 0.00 0.00 0.00 65 1012.5
20260509110706 51 69 0.0 0.0 0.00 0.00 0.00 64 1012.6
20260509110203 51 69 0.0 0.0 0.00 0.00 0.00 65 1012.5
20260509105701 51 68 0.0 0.0 0.00 0.00 0.00 66 1012.6
20260509105158 51 68 0.0 0.0 0.00 0.00 0.00 65 1012.4
20260509104655 52 68 0.0 0.0 0.00 0.00 0.00 63 1012.5
20260509104152 52 67 0.0 0.0 0.00 0.00 0.00 64 1012.5
20260509103650 51 42 1.7 1.7 0.00 0.00 0.00 63 1012.5
20260509103147 51 45 0.9 1.7 0.00 0.00 0.00 64 1012.5
20260509102645 51 68 0.0 0.0 0.00 0.00 0.00 65 1012.6
20260509102142 51 62 0.0 0.0 0.00 0.00 0.00 65 1012.6
20260509101638 51 55 0.9 0.9 0.00 0.00 0.00 66 1012.7
20260509101135 50 39 0.9 0.9 0.00 0.00 0.00 68 1012.8
20260509100632 50 63 0.0 0.0 0.00 0.00 0.00 68 1012.6
20260509100129 50 61 0.0 0.0 0.00 0.00 0.00 68 1012.7
20260509095626 50 59 0.9 0.9 0.00 0.00 0.00 68 1012.6
20260509095123 50 54 0.9 1.7 0.00 0.00 0.00 68 1012.7
20260509094619 50 327 1.7 1.7 0.00 0.00 0.00 68 1012.6
20260509094117 51 70 0.0 0.9 0.00 0.00 0.00 66 1012.7
20260509093615 51 67 0.0 0.9 0.00 0.00 0.00 65 1012.5
20260509093112 51 67 0.9 0.9 0.00 0.00 0.00 64 1012.5
20260509092609 51 17 0.9 1.7 0.00 0.00 0.00 65 1012.6
20260509092108 51 37 0.9 1.7 0.00 0.00 0.00 64 1012.6
20260509091605 52 26 0.9 1.7 0.00 0.00 0.00 63 1012.7
20260509091101 51 75 0.0 1.7 0.00 0.00 0.00 62 1012.8
20260509090559 51 41 0.9 1.7 0.00 0.00 0.00 64 1012.8
20260509090057 51 28 0.0 0.0 0.00 0.00 0.00 63 1012.8
20260509085554 51 111 0.0 0.0 0.00 0.00 0.00 64 1012.7
20260509085049 51 111 0.0 0.0 0.00 0.00 0.00 64 1012.8
20260509084547 51 111 0.0 0.0 0.00 0.00 0.00 64 1012.8
20260509084044 51 111 0.0 0.0 0.00 0.00 0.00 62 1012.9
20260509083541 52 111 0.0 0.0 0.00 0.00 0.00 63 1012.7
20260509083038 52 111 0.0 0.0 0.00 0.00 0.00 62 1013.0
20260509082536 52 111 0.0 0.0 0.00 0.00 0.00 60 1012.9
20260509082032 52 111 0.0 0.0 0.00 0.00 0.00 60 1012.9
20260509081530 52 111 0.0 0.0 0.00 0.00 0.00 61 1013.1
20260509081026 52 111 0.0 0.0 0.00 0.00 0.00 60 1013.0
20260509080524 52 111 0.0 0.0 0.00 0.00 0.00 60 1013.1
20260509080022 52 111 0.0 0.0 0.00 0.00 0.00 61 1013.1
20260509075519 52 111 0.0 0.0 0.00 0.00 0.00 61 1013.1
20260509075017 52 111 0.0 0.0 0.00 0.00 0.00 61 1013.1
20260509074514 52 111 0.0 0.0 0.00 0.00 0.00 61 1013.1
20260509074010 52 111 0.0 0.0 0.00 0.00 0.00 61 1013.2
20260509073507 51 111 0.0 0.0 0.00 0.00 0.00 62 1013.2
20260509073003 51 111 0.0 0.0 0.00 0.00 0.00 64 1013.3
20260509072500 50 111 0.0 0.0 0.00 0.00 0.00 64 1013.4
20260509071957 51 111 0.0 0.0 0.00 0.00 0.00 67 1013.5
20260509071453 51 111 0.0 0.0 0.00 0.00 0.00 64 1013.3
20260509070951 51 111 0.0 0.0 0.00 0.00 0.00 64 1013.3
20260509070448 50 111 0.0 0.0 0.00 0.00 0.00 65 1013.5
20260509065943 50 111 0.0 0.0 0.00 0.00 0.00 66 1013.5
20260509065439 50 111 0.0 0.9 0.00 0.00 0.00 66 1013.5
20260509064936 50 111 0.9 0.9 0.00 0.00 0.00 67 1013.5
20260509064434 51 111 0.9 1.7 0.00 0.00 0.00 67 1013.6
20260509063932 51 111 1.7 2.6 0.00 0.00 0.00 65 1013.5
20260509063427 51 107 0.9 1.7 0.00 0.00 0.00 65 1013.7
20260509062924 50 107 2.6 2.6 0.00 0.00 0.00 66 1013.7
20260509062422 50 93 1.7 1.7 0.00 0.00 0.00 66 1013.7
20260509061919 50 84 0.0 0.0 0.00 0.00 0.00 67 1013.7
20260509061417 49 84 0.0 0.0 0.00 0.00 0.00 67 1013.7
20260509060913 49 84 0.0 0.0 0.00 0.00 0.00 68 1013.7
20260509060411 49 84 0.0 0.0 0.00 0.00 0.00 69 1014.0
20260509055905 50 84 0.0 0.0 0.00 0.00 0.00 67 1013.9
20260509055401 51 84 0.0 0.0 0.00 0.00 0.00 63 1014.1
20260509054858 50 84 0.0 0.9 0.00 0.00 0.00 65 1014.2
20260509054355 50 84 0.9 1.7 0.00 0.00 0.00 67 1014.2
20260509053853 51 84 0.0 0.9 0.00 0.00 0.00 64 1014.2
20260509053350 51 84 0.9 1.7 0.00 0.00 0.00 63 1014.1
20260509052848 52 84 0.9 1.7 0.00 0.00 0.00 62 1014.1
20260509052345 51 83 0.9 1.7 0.00 0.00 0.00 63 1014.1
20260509051843 51 83 0.0 0.9 0.00 0.00 0.00 64 1014.3
20260509051341 50 83 0.0 0.0 0.00 0.00 0.00 65 1014.3
20260509050837 50 75 0.0 0.0 0.00 0.00 0.00 66 1014.4
20260509050334 51 75 0.0 0.9 0.00 0.00 0.00 65 1014.1
20260509045831 51 70 0.0 0.0 0.00 0.00 0.00 64 1014.3
20260509045328 52 64 0.0 0.9 0.00 0.00 0.00 62 1014.4